Terminal Aerodrome Forecast
Issued by NWS Corpus Christi, TX

Home | Current Version | Previous Version | Text Only | Print | Product List | Glossary On
Versions: 1 2 3 4 5 6 7 8 9 10 11 12 13 14 15 16 17
000
FTUS44 KCRP 301120
TAFCRP
TAF
KCRP 301120Z 3012/3112 13007KT P6SM SCT015 OVC250
      TEMPO 3012/3013 BKN015
     FM301500 15014G18KT P6SM SCT025 BKN035
     FM302000 13015G22KT P6SM SCT040 BKN250
     FM310200 13008KT P6SM FEW020 BKN250
     FM310600 13005KT P6SM SCT010 BKN250=

USA.gov is the U.S. government's official web portal to all federal, state and local government web resources and services.